211  
ASUS43 KGRB 081910  
RWRGRB  
 
NORTH-CENTRAL AND NORTHEAST WISCONSIN REGIONAL WEATHER ROUNDUP  
NATIONAL WEATHER SERVICE GREEN BAY WI  
100 PM CST THU DEC 08 2022  
 
WIZ005-009-010>012-018-019-082000-  
NORTH CENTRAL WISCONSIN  
 
CITY SKY/WX TMP DP RH WIND PRES REMARKS
 
IRONWOOD SUNNY 26 17 68 S5 30.33F  
MANITOWISH WTR CLOUDY 19 18 93 S3 30.32F  
ARBOR VITAE PTSUNNY 20 16 85 S3 30.33F  
EAGLE RIVER SUNNY 23 16 76 SW8 30.33F  
LAND O LAKES SUNNY 23 17 75 W3 30.34F  
RHINELANDER MOSUNNY 24 17 74 SW3 30.33F  
PHILLIPS MOSUNNY 24 19 81 CALM 30.32F  
ANTIGO SUNNY 28 20 71 S3 30.35F  
TOMAHAWK SUNNY 27 19 71 CALM 30.34F  
MERRILL SUNNY 29 20 71 CALM 30.34F  

 
 
WIZ013-073-082000-  
NORTHEAST WISCONSIN  
 
CITY SKY/WX TMP DP RH WIND PRES REMARKS
 
IRON MOUNTAIN SUNNY 25 18 74 CALM 30.35F  
MARINETTE NOT AVBL  
OCONTO MOSUNNY 32 21 63 E5 30.41F  

 
 
WIZ017-030-035>037-045-082000-  
CENTRAL WISCONSIN  
 
CITY SKY/WX TMP DP RH WIND PRES REMARKS
 
MEDFORD SUNNY 28 22 77 S5 30.32F  
WAUSAU SUNNY 32 20 61 S5 30.34F  
MOSINEE SUNNY 30 19 64 S7 30.36F  
MARSHFIELD SUNNY 33 23 66 S9 30.33F  
WISC RAPIDS SUNNY 35 22 58 S7 30.35F  
STEVENS POINT SUNNY 35 18 50 SE3 30.36F  
WAUPACA SUNNY 35 20 55 S5 30.38F  
SHAWANO SUNNY 32 22 66 CALM 30.39F  
CLINTONVILLE SUNNY 31 19 60 S5 30.40F  
WAUTOMA MOSUNNY 34 23 64 VRB5 30.37F  

 
 
WIZ038-039-048-051-082000-  
FOX VALLEY  
 
CITY SKY/WX TMP DP RH WIND PRES REMARKS
 
NWS GREEN BAY SUNNY 34 22 61 SE6 30.39F  
APPLETON MOSUNNY 34 19 55 VRB3 30.36F  
OSHKOSH PTSUNNY 32 23 69 E6 30.38F  
FOND DU LAC PTSUNNY 35 26 69 SE5 30.37F  

 
 
WIZ022-050-052-082000-  
EAST CENTRAL WISCONSIN  
 
CITY SKY/WX TMP DP RH WIND PRES REMARKS
 
EPHRAIM MOCLDY 31 19 62 W6 30.40S  
WASHINGTON ISL CLOUDY 29 22 74 W5 30.41F  
STURGEON BAY CLOUDY 32 21 64 SW7 30.41F  
MANITOWOC CLOUDY 35 23 61 CALM 30.40F  
SHEBOYGAN CLOUDY 35 26 69 NE5 30.38F  

 
 
LMZ563-521-522-541>543-082000-  
LAKESHORE  
 
STATION/POSITION TIME TEMP WIND PRES VSBY WAVE
 
AIR SEA DIR/SP/G HT/PER  
(UTC) (F) (DEG/KT/KT) (MB) (MI) (FT/S)  
SHEBOYGAN LKSHOR 1900 33 40/ 7/ 10 1029.7F  
KEWAUNEE LKSHORE 1824 33 CALM / 3 1029.1  
CHAMBERS ISLAND 1840 35 300/ 2/ 3 N/A  
GREEN BAY WEST 1824 27 30/ 4/ 5 1028.7  
MENOMINEE LKSHOR 1824 27 36 40/ 3/ 4 1028.7  

 
 
 
CLICK HERE TO GO TO PREVIOUS BULLETINS.

The Nexlab WI Page Main Text Page